STARLINK-34038

Last updated on Mon Jun 09 2025 00:02:04 GMT+0000 (Coordinated Universal Time)

1 63911U 25095X 25158.81132279 -.00295836 00000+0 -65349-2 0 9998 2 63911 42.9989 289.0250 0001113 274.4305 85.6425 15.44198140 5732
UTC large
Height (km)
Speed (km/s)
/
Latitude / Longitude
Inclination (degrees)
Orbital Period (minutes)
Azimuth
Elevation
Range (km)
Doppler Factor

Next 0 passes for location: London (51.5072 / 0.1276)

Sorry there are no passes over London.